Погода в Столбах

Россия / Республика Саха (Якутия)     63°00′06″N   129°31′44″E
темп.,
°C
ветер,
м/с
пор.,
м/с
влажн.,
%
обл.,
%
осадки,
мм/ч
давл.,
гПа
погр.,
м
27 февраля, сб
сб2700:00−35всв2210020 0.0 103320
03:00−35всв2210046 0.0 103232
06:00−35всв23100100 0.0 103154
09:00−35всв249985 0.0 103093
12:00−29всв359575 0.0 1029294
15:00−26всв479584 0.0 1025326
18:00−28всв3396100 0.0 102479
21:00−28св3496100 0.0 102289
28 февраля, вс
вс2800:00−29ссв2295100 0.0 101929
03:00−29с2292100 0.0 101724
06:00−29зсз2290100 0.0 101838
09:00−27зсз3690100 0.0 1018180
12:00−24зсз4792100 0.0 1019421
15:00−24зсз4891100 0.0 1019539
18:00−28зсз4993100 0.0 1022270
21:00−29з4995100 0.0 1023276
1 марта, пн
пн100:00−27зсз41093100 0.0 1023583
03:00−28зсз4994100 0.2 1024569
06:00−28зсз3895100 0.1 1024427
09:00−28зсз4894100 0.3 1024592
12:00−27зсз3690100 0.1 1025679
15:00−26сз3690100 0.3 1025803
18:00−27зсз2597100 0.1 1026230
21:00−28зсз3695100 0.2 1026342
2 марта, вт
вт200:00−29з3695100 0.1 1025235
03:00−29з3596100 0.1 1025204
06:00−30з2496100 0.1 1026144
09:00−31з2396100 0.1 1026115
12:00−28зсз2389100 0.0 1025482
15:00−27зсз1285100 0.1 1025638
18:00−29зсз1295100 0.0 102519
21:00−29сз1297100 0.1 102648
3 марта, ср
ср300:00−30зсз1198100 0.1 102536
03:00−30зсз1298100 0.2 102556
06:00−30сз1297100 0.1 102465
09:00−30зсз1296100 0.1 1024127
12:00−28сз2290100 0.1 1022382
15:00−27сз2389100 0.1 1021502
18:00−29зсз2495100 0.1 1019162
21:00−30зсз3795100 0.1 1018262